{"data":{"norad_id":48218,"epoch":"2026-09-19T23:38:35.435040Z","epoch_age_seconds":66451,"freshness":"FRESH","line1":"1 48218U 21031J   26262.98513235 -.00000094  00000+0 -28743-3 0  9995","line2":"2 48218  87.8898 270.8003 0001694  91.3613 268.7710 13.14502923260689","mean_motion":13.14502923,"eccentricity":0.0001694,"inclination_deg":87.8898,"raan_deg":270.8003,"arg_perigee_deg":91.3613,"mean_anomaly_deg":268.771,"bstar":-0.00028743,"rev_number":26068,"period_min":109.54711281384,"perigee_km":1204.5051643372,"apogee_km":1207.0745987647,"semimajor_km":7583.926881551,"source":"CELESTRAK","updated_at":"2026-09-20T09:00:44.593803Z"}}